Terminal Aerodrome Forecast
Issued by NWS

Home | Current Version | Previous Version | Text Only | Print | Product List | Glossary On
Versions: 1 2 3 4 5 6 7 8 9 10 11 12 13 14 15 16 17 18 19 20 21 22 23 24 25 26 27 28 29 30 31 32 33 34 35 36 37 38 39 40 41 42 43 44 45 46 47 48 49 50
000
FTUS46 KEKA 031101 CCA
TAFACV
TAF COR
KACV 031101Z 0308/0406 17005KT P6SM OVC007
     FM031400 VRB03KT 6SM BR OVC005
     FM031800 30004KT 6SM BR SCT004 BKN007 OVC013
     FM032000 30008KT P6SM FEW007 OVC015=

USA.gov is the U.S. government's official web portal to all federal, state and local government web resources and services.